User: anonymous
Location: Raven Hill Discovery Center
(45.1336°N, 85.0553°W)
Time: 15:53:15
(UTC-04:00)
Language:

Cosmos 1470 - Orbit

View from above orbital plane
View from above orbital plane
View from above satellite
View from above satellite

Ground track
Ground track

The orbit data is extracted from the following two-line orbital elements,

1 14147U 83061A   14273.48027921  .00003132  00000-0  20572-3 0  1007
2 14147 082.5063 289.4567 0014791 091.9178 268.3744 15.07207546455354
Epoch (UTC): 30 September 2014 11:31:36
Eccentricity: 0.0014791
inclination: 82.5063°
perigee height: 534 km
apogee height: 555 km
right ascension of ascending node: 289.4567°
argument of perigee: 91.9178°
revolutions per day: 15.07207546
mean anomaly at epoch: 268.3744°
orbit number at epoch: 45535

The dashed part of the orbit path shows where the satellite is in the earth's shadow,  

DLR